EW2654 Weather Reports


Display with metric or nautical units.
time (UTC)temp
F
wind
direction
speed
MPH
gust
MPH
rain 1hr
in
rain 24hr
in
rain mn
in
humidity
%
barometer
mb
20260508033016 47 207 0.0 0.0 0.00 0.61 0.00 99 1001.7
20260508031516 47 207 0.0 3.0 0.00 0.61 0.00 99 1001.6
20260508030022 47 207 0.0 0.0 0.00 0.61 0.00 99 1001.7
20260508024516 46 211 0.0 5.0 0.00 0.61 0.61 99 1001.5
20260508023010 46 188 1.0 4.0 0.00 0.61 0.61 99 1001.4
20260508021550 46 199 2.0 5.0 0.00 0.61 0.61 99 1001.4
20260508020104 46 178 2.0 9.0 0.00 0.61 0.61 99 1001.7
20260508014556 46 206 4.0 7.0 0.00 0.61 0.61 99 1001.5
20260508013059 46 209 3.0 8.0 0.00 0.61 0.61 99 1001.3
20260508011547 47 193 4.0 9.0 0.00 0.61 0.61 99 1001.6
20260508010045 47 174 3.0 10.0 0.00 0.61 0.61 99 1002.0
20260508004544 47 177 5.0 11.0 0.00 0.61 0.61 99 1001.9
20260508003045 47 168 4.0 9.0 0.00 0.61 0.61 99 1001.8
20260508001551 48 216 6.0 9.0 0.00 0.61 0.61 99 1001.8
20260508000042 47 188 4.0 9.0 0.00 0.61 0.61 99 1002.2
20260507234542 47 193 4.0 14.0 0.00 0.61 0.61 99 1002.2
20260507233042 47 190 5.0 9.0 0.01 0.61 0.61 99 1002.5
20260507231540 47 182 8.0 15.0 0.01 0.61 0.61 99 1002.4
20260507230040 47 163 7.0 20.0 0.01 0.61 0.61 99 1002.4
20260507224540 48 145 10.0 17.0 0.01 0.61 0.61 98 1002.7
20260507223039 47 158 11.0 19.0 0.00 0.61 0.61 99 1002.3
20260507221538 47 187 8.0 14.0 0.02 0.61 0.61 98 1002.9
20260507220038 47 150 9.0 18.0 0.06 0.61 0.61 98 1002.2
20260507214539 47 153 11.0 21.0 0.17 0.61 0.61 98 1002.2
20260507213042 47 137 12.0 18.0 0.24 0.61 0.61 98 1002.6
20260507211543 48 170 12.0 21.0 0.28 0.57 0.57 98 1003.2
20260507210029 48 181 12.0 26.0 0.32 0.54 0.54 98 1003.4
20260507204525 48 138 8.0 15.0 0.28 0.44 0.44 98 1004.4
20260507203024 48 228 8.0 23.0 0.27 0.37 0.37 98 1004.8
20260507201533 48 177 12.0 22.0 0.22 0.28 0.28 98 1004.2
20260507200022 48 144 12.0 23.0 0.17 0.21 0.21 98 1004.5
20260507194517 49 157 10.0 20.0 0.13 0.15 0.15 98 1004.9
20260507193020 49 168 12.0 26.0 0.09 0.09 0.09 98 1005.0
20260507191521 49 146 11.0 23.0 0.07 0.07 0.07 98 1005.5
20260507190016 49 153 11.0 17.0 0.04 0.04 0.04 98 1005.4
20260507184511 49 164 10.0 27.0 0.02 0.02 0.02 97 1005.2
20260507183009 49 203 10.0 26.0 0.01 0.01 0.01 96 1005.2
20260507181507 50 162 13.0 23.0 0.00 0.00 0.00 96 1005.0
20260507180008 51 165 12.0 26.0 0.00 0.00 0.00 95 1005.5
20260507174512 51 153 16.0 24.0 0.00 0.00 0.00 94 1005.8
20260507173003 52 127 15.0 23.0 0.00 0.00 0.00 94 1006.2
20260507171503 52 158 12.0 24.0 0.00 0.00 0.00 94 1006.3
20260507170100 52 164 10.0 21.0 0.00 0.00 0.00 94 1007.1
20260507164559 52 144 10.0 22.0 0.00 0.00 0.00 95 1007.1
20260507163058 52 156 15.0 26.0 0.00 0.00 0.00 94 1007.6
20260507161556 51 198 14.0 22.0 0.00 0.00 0.00 94 1008.1
20260507160053 52 199 10.0 22.0 0.00 0.00 0.00 93 1008.3
20260507154552 52 182 12.0 28.0 0.00 0.00 0.00 93 1008.3
20260507153101 52 150 13.0 25.0 0.00 0.00 0.00 94 1008.5
20260507151546 51 155 13.0 28.0 0.00 0.00 0.00 94 1009.1
20260507150045 52 156 8.0 29.0 0.00 0.00 0.00 96 1009.2
20260507144544 52 193 15.0 23.0 0.00 0.00 0.00 95 1009.7
20260507143049 52 182 15.0 32.0 0.00 0.00 0.00 95 1010.5
20260507141539 52 170 10.0 24.0 0.00 0.00 0.00 94 1010.6
20260507140039 53 183 14.0 24.0 0.00 0.00 0.00 93 1010.7
20260507134537 52 168 13.0 21.0 0.00 0.00 0.00 94 1010.9
20260507133044 52 149 13.0 33.0 0.00 0.00 0.00 94 1010.5
20260507131540 51 159 16.0 25.0 0.00 0.00 0.00 95 1010.9
20260507130035 50 163 12.0 25.0 0.00 0.00 0.00 96 1010.6
20260507124529 50 145 15.0 24.0 0.00 0.00 0.00 97 1010.8
20260507123026 49 145 10.0 20.0 0.00 0.00 0.00 97 1011.3
20260507121521 49 145 14.0 23.0 0.00 0.00 0.00 97 1012.0
20260507120019 49 173 15.0 29.0 0.00 0.00 0.00 97 1012.4
20260507114517 49 195 11.0 24.0 0.00 0.00 0.00 97 1012.5
20260507113023 49 199 11.0 24.0 0.00 0.00 0.00 97 1012.8
20260507111518 49 157 10.0 20.0 0.00 0.00 0.00 98 1012.4
20260507110013 49 196 14.0 23.0 0.00 0.00 0.00 98 1012.6
20260507104511 49 173 10.0 19.0 0.00 0.00 0.00 98 1013.4
20260507103008 48 164 9.0 19.0 0.00 0.00 0.00 98 1013.4
20260507101507 48 158 10.0 18.0 0.00 0.00 0.00 97 1013.3
20260507100010 48 171 9.0 15.0 0.00 0.00 0.00 97 1012.9
20260507094502 49 157 9.0 18.0 0.00 0.00 0.00 97 1013.0
20260507093102 49 156 11.0 17.0 0.00 0.00 0.00 97 1013.1
20260507091556 49 154 8.0 17.0 0.00 0.00 0.00 97 1013.6
20260507090059 49 191 10.0 18.0 0.00 0.00 0.00 97 1013.4
20260507084603 50 136 8.0 13.0 0.00 0.00 0.00 97 1013.5
20260507083051 50 165 6.0 14.0 0.00 0.00 0.00 96 1013.5
20260507081548 50 176 9.0 16.0 0.00 0.00 0.00 96 1013.8
20260507080050 50 155 5.0 15.0 0.00 0.00 0.00 96 1014.2
20260507074544 49 167 7.0 11.0 0.00 0.00 0.00 96 1014.3
20260507073043 49 155 8.0 13.0 0.00 0.00 0.00 96 1014.4
20260507071542 49 161 5.0 13.0 0.00 0.00 0.00 96 1014.6
20260507070059 49 190 8.0 17.0 0.00 0.00 0.00 96 1014.7
20260507064541 49 163 8.0 14.0 0.00 0.00 0.00 96 1014.7
20260507063035 50 170 9.0 15.0 0.00 0.00 0.00 96 1014.9
20260507061529 51 161 7.0 15.0 0.00 0.00 0.00 96 1015.0
20260507060033 52 201 10.0 20.0 0.00 0.00 0.00 97 1015.1
20260507054524 52 170 6.0 13.0 0.00 0.00 0.00 97 1015.3
20260507053022 52 153 9.0 16.0 0.00 0.00 0.00 97 1015.6
20260507051520 51 188 4.0 14.0 0.00 0.00 0.00 97 1015.9
20260507050037 52 174 5.0 16.0 0.00 0.00 0.00 97 1016.1
20260507044516 52 188 6.0 17.0 0.00 0.00 0.00 96 1016.2
20260507043014 52 177 9.0 20.0 0.00 0.00 0.00 97 1016.4
20260507041512 52 174 7.0 18.0 0.00 0.00 0.00 96 1016.8
20260507040006 52 219 8.0 17.0 0.00 0.00 0.00 96 1016.9
20260507034506 53 182 8.0 15.0 0.00 0.00 0.00 96 1017.1